Location: Byszew
(52.1813°N, 19.2693°E)
Time: 00:40:10
(UTC+00:00)

Cosmos 1844 - Pass Details

Date: 20 June 2021
Orbit: 823 x 867 km, 70.9° (Epoch: 30 July)

Event Time Altitude Azimuth Distance (km) Brightness Sun altitude
Rises 20:22:49 0° 324° (NW) 3,373 9.3 -8.3°
Reaches altitude 10° 20:25:26 10° 316° (NW) 2,438 7.6 -8.5°
Maximum altitude 20:30:24 34° 253° (WSW) 1,336 4.9 -8.9°
Drops below altitude 10° 20:35:23 10° 189° (S) 2,441 5.6 -9.3°
Enters shadow 20:36:27 - 185° (S) 2,814 5.9 -9.4°
